Location: Austin
(30.3000°N, 97.7500°W)
Time: 11:14:36
(UTC-05:00)

Cosmos 1484 Rocket - Pass Details

Date: 03 April 2024
Orbit: 481 x 527 km, 97.6° (Epoch: 21 April)

Event Time Altitude Azimuth Distance (km) Brightness Sun altitude
Rises 06:13:22 0° 1° (N) 2,587 6.5 -14.3°
Reaches altitude 10° 06:15:34 10° 352° (N) 1,692 5.4 -13.9°
Maximum altitude 06:18:54 35° 285° (WNW) 800 3.2 -13.2°
Enters shadow 06:21:10 17° 227° (SW) 1,282 4.2 -12.7°
